Regional Weather Roundup
Issued by NWS Grand Forks, ND

Home | Current Version | Previous Version | Text Only | Print | Product List | Glossary On
Versions: 1 2 3 4 5 6 7 8 9 10 11 12 13 14 15 16 17 18 19 20 21 22 23 24 25 26 27 28 29 30 31 32 33 34 35 36 37 38 39 40 41 42 43 44 45 46 47 48 49 50
000
ASUS43 KFGF 021131
RWRFGF
PRAIRIE TO PINES  WEATHER ROUNDUP
NATIONAL WEATHER SERVICE EASTERN NORTH DAKOTA/GRAND FORKS ND
600 AM CDT TUE SEP 02 2014

 **SATELLITE DATA USED TO AUGMENT SKY COVER AT AUTOMATED STATIONS**
 *****  WEATHER ACROSS EASTERN NORTH DAKOTA  *****

CITY           SKY/WX    TMP DP  RH WIND       PRES   REMARKS
GRAND FORKS    PTCLDY    51  48  89 W7        29.76S
GRAND FRKS AFB CLEAR     52  51  98 W6        29.78S
GRAND FRKS NWS   N/A     50 N/A N/A W5          N/A
DEVILS LAKE    MOCLDY    55  46  71 SW5       29.77F
FARGO          CLEAR     51  49  92 S7        29.80F
WAHPETON ARPT  SUNNY     52  48  87 SW3       29.84S
$$

 ***** WEATHER ACROSS CENTRAL AND WESTERN NORTH DAKOTA  *****

CITY           SKY/WX    TMP DP  RH WIND       PRES   REMARKS
BISMARCK       MOCLDY    50  48  93 CALM      29.84F
MINOT          CLOUDY    55  51  86 CALM      29.78F
JAMESTOWN      PTCLDY    53  49  86 SW5       29.82F
MINOT AFB      LGT RAIN  55  54  95 NE8       29.77S
GARRISON         N/A     54  52  93 W5        29.80R
WILLISTON      PTCLDY    53  49  86 SW7       29.77S
DICKINSON      CLEAR     53  44  71 SW14      29.82F
HETTINGER      CLEAR     47  43  86 W5        29.89F
$$

 *****  OTHER AIRPORT OBSERVATIONS IN OUR AREA  *****

CITY           SKY/WX    TMP DP  RH WIND       PRES   REMARKS
WALHALLA         N/A     52  48  87 SW5       29.75S
GRAFTON AIRPOR FAIR      50  50 100 W7        29.76R
VALLEY CITY AR FAIR      54  54 100 W10       29.82F
CANDO          CLOUDY    48  48 100 W10       29.80R
CAVALIER APRT  FAIR      50  46  87 W6        29.75S
GWINNER        SUNNY     52  52 100 SW8       29.86S
SHEYENNE NWR     N/A     48  47  96 SW3       29.95S
ROLLA          CLOUDY    52  48  87 W10       29.79R
 ***** THE ABOVE OBSERVATIONS ARE NON NWS ARE NOT QUALITY
       CONTROLLED AND MAY MIS-REPORT RAIN FOR SNOW...
$$

  *****  WEATHER ACROSS NORTHERN MINNESOTA  *****

CITY           SKY/WX    TMP DP  RH WIND       PRES   REMARKS
FLAG ISLAND    PTCLDY    55  50  82 W9        29.72R
WARROAD        CLEAR     48  45  87 S3        29.75R
ROSEAU           N/A     46  41  81 S3        29.75S
HALLOCK        CLEAR     45  43  93 S6        29.74S
THF RVR FALLS  CLEAR     48  46  93 S6        29.78S
BAUDETTE       CLEAR     48  46  93 SW5       29.74S
WASKISH        MOCLDY    55  54  94 CALM      29.77S
CROOKSTON      CLEAR     48  46  93 S3        29.79R
$$
  *****  WEATHER ACROSS CENTRAL AND WEST MINNESOTA  *****

CITY           SKY/WX    TMP DP  RH WIND       PRES   REMARKS
FOSSTON        CLEAR     46  46 100 S6        29.81R
BEMIDJI        PTCLDY    52  50  92 SW5       29.80S
PARK RAPIDS    CLEAR     50  48  93 CALM      29.82S
ELBOW LAKE     FAIR      52  52  99 S3        29.86R
WADENA         CLEAR     52  50  93 SW3       29.84S
DETROIT LAKES  CLEAR     54  52  94 CALM      29.83S
MOORHEAD       CLEAR     52  52 100 S3        29.82S
FERGUS FALLS   CLEAR     54  52  94 CALM      29.85S
MORRIS MN      CLEAR     54  54 100 CALM      29.86S
STAPLES        CLEAR     48  46  93 CALM      29.84S
$$
  *****  WEATHER ELSEWHERE ACROSS MINNESOTA  *****

CITY           SKY/WX    TMP DP  RH WIND       PRES   REMARKS
DULUTH         MOCLDY    54  50  86 NW5       29.81S
INTRNTL FALLS  CLEAR     47  46  97 SW3       29.75R
ELY            CLEAR     48  48 100 SW3       29.79S
CLOQUET        MOCLDY    50  46  87 CALM      29.82S FOG
WHEATON        CLEAR     52  48  87 SW3       29.87S
BRAINERD       PTCLDY    49  49 100 S5        29.84S
HIBBING        FOG       43  41  93 CALM      29.81R VSB 1/2
ALEXANDRIA     CLEAR     54  51  90 SW5       29.87S
SAINT CLOUD    CLOUDY    58  54  86 NW3       29.85R
MINNEAPOLIS    CLOUDY    63  59  87 SW5       29.85R
$$

  *****  WEATHER ACROSS SOUTH DAKOTA  *****

CITY           SKY/WX    TMP DP  RH WIND       PRES   REMARKS
SIOUX FALLS    CLEAR     56  54  93 W3        29.92F
BROOKINGS      NOT AVBL
WATERTOWN      CLEAR     52  51  97 SW5       29.89S
HURON          CLEAR     52  51  97 S5        29.91R
SISSETON         N/A     54  52  93 W3        29.85R
ABERDEEN       CLEAR     47  47 100 SW3       29.88S
MITCHELL       CLEAR     56  54  93 W6        29.92S
PIERRE         CLEAR     53  51  93 SW12      29.92R
MOBRIDGE       CLEAR     50  49  96 SE6       29.87S
RAPID CITY     CLEAR     49  40  71 W7        29.97F
$$

  *****  SOME WEATHER IN NEARBY STATES *****

CITY           SKY/WX    TMP DP  RH WIND       PRES   REMARKS
GLASGOW MT     CLEAR     53  44  71 W7        29.79S
GREAT FALLS MT CLOUDY    50  39  66 SW9       29.90F
CHEYENNE WY    CLEAR     46  41  82 SW3       30.16S
SCOTTSBLUFF NE CLEAR     42  41  96 N6        30.07S
OMAHA NE       CLEAR     60  56  86 CALM      29.95S
DES MOINES IA  PTCLDY    62  58  86 NW3       29.90S
DAVENPORT IA   PTCLDY    58  58 100 CALM      29.89S FOG
CHICAGO IL     MOCLDY    68  63  84 NW7       29.87S
EAU CLAIRE WI  CLOUDY    59  58  96 SW3       29.83R
LA CROSSE WI   MOCLDY    62  60  93 S7        29.85S
$$

  *****  SOME NATIONAL WEATHER *****

CITY           SKY/WX    TMP DP  RH WIND       PRES   REMARKS
LA GUARDIA NY  MOCLDY    80  72  76 S3        29.90R
RALEIGH NC     PTCLDY    72  68  87 SW3       30.07R
ATLANTA GA     PTCLDY    72  69  90 NW3       30.11R
NEW ORLEANS LA MOCLDY    79  75  87 CALM      30.03R
OKLAHOMA CITY  MOCLDY    78  67  68 S9        29.84R
ALBUQUERQUE NM CLEAR     66  40  38 CALM      30.10R
SALT LAKE CITY CLEAR     57  41  55 SE7       30.01S
LOS ANGELES CA MOCLDY    69  63  81 E7        29.84S
BOISE ID       CLEAR     56  36  47 SE8       29.96S
SEATTLE WA     MOCLDY    62  53  72 NE7       29.97F
$$

*** WEATHER ACROSS MANITOBA...SASKATCHEWAN AND ONTARIO ***
                ***ONTARIO***

CITY           SKY/WX    TMP DP  RH WIND       PRES   REMARKS
GERALDTON      PTCLDY    52  52 100 W3        29.66R
THUNDER BAY    PTCLDY    50  50 100 W3        29.73R
SIOUX LOOKOUT  PTCLDY    54  52  94 SW5       29.67S
TORONTO        MOCLDY    70  66  88 W9        29.84R
BIG TROUT LK   RAIN      54  54 100 NW7       29.50S
PICKLE LAKE    LGT RAIN  52  50  93 W10G17    29.63
DRYDEN         CLEAR     52  52 100 W9        29.70R
KENORA         PTCLDY    52  48  87 W6        29.72R
$$
                *** MANITOBA***

CITY           SKY/WX    TMP DP  RH WIND       PRES   REMARKS
BRANDON        MOCLDY    46  46 100 VRB2      29.74S
DAUPHIN        CLOUDY    55  48  76 W13       29.69R
ISLAND LAKE    PTCLDY    54  52  94 CALM      29.57S
PILOT MOUND      N/A     46  43  87 S3          N/A
THE PAS        MOCLDY    52  50  93 W7        29.59S
THOMPSON       PTCLDY    45  45 100 W3        29.52S
WINNIPEG       CLEAR     50  46  87 W9        29.72R
CHURCHILL      FOG       50  50 100 E8        29.49S VSB 1/4
GILLAM         MOCLDY    46  46 100 SW3       29.49S
$$
                ***SASKATCHEWAN***

CITY           SKY/WX    TMP DP  RH WIND       PRES   REMARKS
ESTEVAN        PTCLDY    50  46  87 SE6       29.73S
KINDERSLEY     PTCLDY    45  43  93 NW8       29.75R
LLOYDMINSTER   MOCLDY    45  43  93 W8        29.72S
PRINCE ALBERT  MOCLDY    46  46 100 CALM      29.66S
REGINA         MOCLDY    48  46  93 S5        29.70S
YORKTON        MOCLDY    54  48  82 VRB2      29.67F
N. BATTLEFORD  MOCLDY    50  46  87 NW8       29.73R
LA RONGE       PTCLDY    45  43  93 W3        29.63
SASKATOON      MOCLDY    48  46  93 SW7       29.72R
SWIFT CURRENT  CLEAR     45  43  93 W9        29.75R
$$
NOTE: THESE ARE AUTOMATED STATIONS WITH LIMITED QUALITY CONTROL
      "FAIR" INDICATES FEW OR NO CLOUDS BELOW 12,000 FEET WITH NO
      SIGNIFICANT WEATHER AND/OR OBSTRUCTIONS TO VISIBILITY.
      SKY/WX - SKY CONDITION AND SIGNIFICANT WEATHER.
      TMP - AIR TEMPERATURE.    DP   - DEWPOINT TEMPERATURE.
      RH  - RELATIVE HUMIDITY.  PRES - PRESSURE.
      HX  - HEAT INDEX.         WCI  - WIND CHILL INDEX.
$


USA.gov is the U.S. government's official web portal to all federal, state and local government web resources and services.